Overview Statistics Trail Chart Weather Telemetry Raw packets
 

This is the latest recevied weather packets stored in our database for station/object K6CEG. If no packets are shown the sender has not sent any weather packets the latest 10 day(s).

<< 110 111 112 113 114 >>
Time Temp. Humidity Pressure Rain* Wind** Luminosity Snow
1787840007 25.56° C 62% 1013.8 hPa 0 mm - 19 W/m² -
1787839707 25.56° C 62% 1013.6 hPa 0 mm - 19 W/m² -
1787839401 25.56° C 64% 1013.8 hPa 0 mm - 23 W/m² -
1787839101 25.56° C 64% 1014 hPa 0 mm - 21 W/m² -
1787838800 25.56° C 63% 1014.5 hPa 0 mm - 11 W/m² -
1787838495 26.11° C 62% 1014.4 hPa 0 mm - 6 W/m² -
1787838194 25.56° C 61% 1014.4 hPa 0 mm - 3 W/m² -
1787837893 25.56° C 61% 1013.8 hPa 0 mm - 2 W/m² -
1787837593 25.56° C 61% 1013.1 hPa 0 mm - 0 W/m² -
1787837293 25.56° C 60% 1013 hPa 0 mm - 0 W/m² -
1787836988 25.56° C 60% 1013.3 hPa 0 mm - 0 W/m² -
1787836683 26.11° C 59% 1013.3 hPa 0 mm - 0 W/m² -
1787836382 26.11° C 59% 1013.3 hPa 0 mm - 0 W/m² -
1787836078 26.11° C 59% 1013.4 hPa 0 mm - 0 W/m² -
1787835774 26.11° C 58% 1013.5 hPa 0 mm - 0 W/m² -
1787835473 26.11° C 58% 1013.3 hPa 0 mm - 0 W/m² -
1787835169 26.11° C 57% 1013 hPa 0 mm - 0 W/m² -
1787834863 26.67° C 56% 1013.1 hPa 0 mm - 0 W/m² -
1787834570 26.11° C 56% 1013.1 hPa 0 mm - 0 W/m² -
1787834258 26.11° C 56% 1013.1 hPa 0 mm - 0 W/m² -
1787833954 26.67° C 56% 1013.3 hPa 0 mm - 0 W/m² -
1787833649 26.67° C 56% 1013.2 hPa 0 mm - 0 W/m² -
1787833344 26.67° C 55% 1013.2 hPa 0 mm - 0 W/m² -
1787833040 26.67° C 54% 1012.9 hPa 0 mm - 0 W/m² -
1787832735 26.67° C 54% 1013.4 hPa 0 mm - 0 W/m² -

* Rain latest hour (hover to see other rain measurements)
** Current wind speed in m/s (hover to see current wind gust speed)